Terminal Aerodrome Forecast
Issued by NWS

Home | Current Version | Previous Version | Text Only | Print | Product List | Glossary On
Versions: 1 2 3 4 5 6 7 8 9 10 11 12 13 14 15 16 17 18 19 20 21 22 23 24 25 26 27 28 29 30 31 32 33 34
000
FTUS45 KGJT 251408 AAA
TAFASE
TAF AMD
KASE 251408Z 2514/2612 21005KT P6SM -SHRA BKN070
     FM251800 34008KT P6SM VCSH SCT030 OVC050
      TEMPO 2520/2524 VRB15G30KT 5SM -TSRA SCT030 BKN040CB
     FM260400 18004KT 5SM -RASN BKN030=

USA.gov is the U.S. government's official web portal to all federal, state and local government web resources and services.